Location: Breitenfeld
(46.8500°N, 15.6333°E)
Time: 00:41:45
(UTC+00:00)

Transit 4B - Pass Details

Date: 01 June 2022
Orbit: 948 x 1097 km, 32.4° (Epoch: 03 July)

Event Time Altitude Azimuth Distance (km) Brightness Sun altitude
Exits shadow 23:20:18 11° 127° (SE) 2,708 10.5 -20.8°
Drops below altitude 10° 23:20:37 10° 124° (SE) 2,775 10.6 -20.8°
Sets 23:24:10 0° 106° (ESE) 3,697 11.4 -20.7°
